Starlink 6096

operational
NORAD ID: 56103 Int'l Des: 2023-046 Owner: SPXS Country: US Constellation: starlink
LEOCIRCULAR

Über Starlink 6096

Beschreibung wird geladen...

Live-Position

3D-Globus wird geladen...

Nächste Überflüge

Höhenverlauf

Altitude vs Time

uPlot chart will show altitude changes over time

Zweizeiliger Elementsatz

1 56103U 23046L 25304.53587486 .00000555 00000-0 56183-4 0 9992
2 56103 43.0030 140.7546 0001324 267.1728 92.8963 15.02539723142637
Epoch: 31. Okt. 2025 • Age: 31 hours

Aktueller Status

Höhe 562.9 km
Geschwindigkeit 7.58 km/s
Subsatellitenpunkt -19.32°S, 7.23°W
Startdatum 29. März 2023
Alter 2.5 years
Typ internet

Technische Details

Klassifizierung Payload
Masse 305.00 kg
Trockenmasse 290.00 kg
Gesamtmasse 305.00 kg
Länge 0.20 m
Durchmesser 2.80 m
Spannweite 9.00 m
Form Box + pan
Hersteller SPXS
Bus-Typ Starlink
Phasenstatus In Orbit
Besitzer/Staat SPXS/US

Große Konstellationen

Loading constellations...